Date String (YYYY-MM-DD hh:mm:ss) UTC,Instrument flags,absolute air pressure of the measurement (hPa),sample flow rate (lpm),inlet stack bypass flow (lpm),air temperature of the measurement (°C),ambient temperature measured by the external sensor (°C),aerosol sample conditioner tube jacket temperature (°C),OPC LED temperature (°C),internal box temperature (°C),relative humidity of the measurement (%),span deviation,mass concentration of particles derived from Lorenz-Mie calculation of OPC scattering (μg/m³),mass concentration of particles derived from Lorenz-Mie calculation of OPC scattering (μg/m³),mass concentration of particles derived from Lorenz-Mie calculation of OPC scattering (μg/m³)
DateTimeUTC,F1_M11,P_M11,Q1_M11,Q2_M11,T1_M11,T2_M11,T3_M11,T4_M11,T5_M11,U1_M11,ZSPAN_M11,X0_M11,X2_M11,X1_M11
2024-01-06 06:00:00,SystemResetWarning,0823.9,4.99,000.00,020.7,019.6,000.0,029.1,021.7,10.3,0000.0,0008.92,0003.51,0003.20
2024-01-06 06:01:00,SystemResetWarning,0823.9,5.00,000.00,020.6,019.5,000.0,029.1,021.7,10.3,0000.0,0008.64,0003.54,0003.22
2024-01-06 06:02:00,SystemResetWarning,0824.0,4.99,000.00,020.6,019.5,000.0,029.1,021.7,10.3,0000.0,0008.65,0003.57,0003.24
2024-01-06 06:03:00,SystemResetWarning,0824.0,5.00,000.00,020.6,019.5,000.0,029.0,021.7,10.4,0000.0,0008.81,0003.59,0003.25
2024-01-06 06:04:00,SystemResetWarning,0824.0,5.00,000.00,020.6,019.5,000.0,029.0,021.7,10.3,0000.0,0008.55,0003.59,0003.27
2024-01-06 06:05:00,SystemResetWarning,0824.0,5.01,000.00,020.6,019.5,000.0,029.0,021.7,10.3,0000.0,0008.34,0003.64,0003.30
2024-01-06 06:06:00,SystemResetWarning,0824.0,5.00,000.00,020.6,019.5,000.0,029.0,021.7,10.4,0000.0,0008.34,0003.67,0003.32
2024-01-06 06:07:00,SystemResetWarning,0824.0,5.01,000.00,020.6,019.5,000.0,029.0,021.7,10.4,0000.0,0008.42,0003.68,0003.33
2024-01-06 06:08:00,SystemResetWarning,0823.9,5.00,000.00,020.6,019.5,000.0,029.0,021.7,10.4,0000.0,0007.98,0003.70,0003.34
2024-01-06 06:09:00,SystemResetWarning,0824.0,4.99,000.00,020.6,019.6,000.0,029.0,021.7,10.4,0000.0,0007.55,0003.72,0003.35
2024-01-06 06:10:00,SystemResetWarning,0824.0,4.99,000.00,020.6,019.5,000.0,029.0,021.6,10.5,0000.0,0006.67,0003.74,0003.39
2024-01-06 06:11:00,SystemResetWarning,0824.0,5.00,000.00,020.6,019.5,000.0,028.9,021.7,10.5,0000.0,0006.71,0003.76,0003.41
2024-01-06 06:12:00,SystemResetWarning,0824.0,5.00,000.00,020.5,019.5,000.0,028.9,021.6,10.5,0000.0,0006.81,0003.79,0003.43
2024-01-06 06:13:00,SystemResetWarning,0824.0,5.01,000.00,020.5,019.5,000.0,028.9,021.7,10.5,0000.0,0006.60,0003.81,0003.45
2024-01-06 06:14:00,SystemResetWarning,0824.0,5.01,000.00,020.5,019.6,000.0,028.9,021.7,10.5,0000.0,0006.36,0003.82,0003.48
2024-01-06 06:15:00,SystemResetWarning,0824.0,5.00,000.00,020.5,019.6,000.0,028.9,021.7,10.6,0000.0,0006.33,0003.85,0003.51
2024-01-06 06:16:00,SystemResetWarning,0824.0,5.00,000.00,020.5,019.6,000.0,028.9,021.7,10.6,0000.0,0006.41,0003.87,0003.52
2024-01-06 06:17:00,SystemResetWarning,0824.0,4.99,000.00,020.5,019.6,000.0,028.9,021.7,10.6,0000.0,0006.41,0003.85,0003.53
2024-01-06 06:18:00,SystemResetWarning,0824.0,4.99,000.00,020.5,019.5,000.0,028.9,021.7,10.6,0000.0,0006.33,0003.85,0003.55
2024-01-06 06:19:00,SystemResetWarning,0824.0,5.01,000.00,020.5,019.5,000.0,028.9,021.7,10.7,0000.0,0006.36,0003.88,0003.57
2024-01-06 06:20:00,SystemResetWarning,0824.0,5.01,000.00,020.5,019.5,000.0,028.9,021.7,10.7,0000.0,0006.73,0003.91,0003.60
2024-01-06 06:21:00,SystemResetWarning,0824.0,5.01,000.00,020.5,019.5,000.0,028.9,021.6,10.7,0000.0,0006.99,0003.92,0003.61
2024-01-06 06:22:00,SystemResetWarning,0824.0,5.00,000.00,020.5,019.5,000.0,028.9,021.6,10.7,0000.0,0007.26,0003.95,0003.63
2024-01-06 06:23:00,SystemResetWarning,0824.0,5.00,000.00,020.5,019.4,000.0,028.8,021.6,10.7,0000.0,0007.89,0003.97,0003.63
2024-01-06 06:24:00,SystemResetWarning,0824.0,5.00,000.00,020.4,019.4,000.0,028.8,021.6,10.7,0000.0,0007.89,0003.97,0003.65
2024-01-06 06:25:00,SystemResetWarning,0824.0,5.00,000.00,020.4,019.4,000.0,028.8,021.5,10.8,0000.0,0007.93,0003.99,0003.67
2024-01-06 06:26:00,SystemResetWarning,0824.0,5.00,000.00,020.4,019.4,000.0,028.8,021.6,10.8,0000.0,0008.23,0004.04,0003.68
2024-01-06 06:27:00,SystemResetWarning,0824.0,5.00,000.00,020.4,019.4,000.0,028.8,021.5,10.8,0000.0,0008.53,0004.05,0003.70
2024-01-06 06:28:00,SystemResetWarning,0824.0,4.99,000.00,020.4,019.3,000.0,028.8,021.5,10.9,0000.0,0008.45,0004.04,0003.71
2024-01-06 06:29:00,SystemResetWarning,0824.0,5.00,000.00,020.4,019.3,000.0,028.8,021.5,10.9,0000.0,0008.48,0004.06,0003.72
2024-01-06 06:30:00,SystemResetWarning,0824.0,5.00,000.00,020.3,019.3,000.0,028.8,021.4,11.0,0000.0,0008.51,0004.07,0003.73
2024-01-06 06:31:00,SystemResetWarning,0824.0,5.00,000.00,020.3,019.3,000.0,028.8,021.4,11.0,0000.0,0008.46,0004.10,0003.73
2024-01-06 06:32:00,SystemResetWarning,0824.0,5.00,000.00,020.3,019.3,000.0,028.8,021.4,11.1,0000.0,0008.37,0004.13,0003.74
2024-01-06 06:33:00,SystemResetWarning,0824.0,5.00,000.00,020.3,019.3,000.0,028.7,021.4,11.1,0000.0,0008.20,0004.11,0003.73
2024-01-06 06:34:00,SystemResetWarning,0824.0,5.00,000.00,020.3,019.2,000.0,028.7,021.3,11.2,0000.0,0008.18,0004.08,0003.73
2024-01-06 06:35:00,SystemResetWarning,0824.0,5.00,000.00,020.3,019.2,000.0,028.7,021.3,11.2,0000.0,0008.18,0004.05,0003.71
2024-01-06 06:36:00,SystemResetWarning,0824.1,5.00,000.00,020.2,019.2,000.0,028.7,021.3,11.3,0000.0,0008.23,0004.02,0003.68
2024-01-06 06:37:00,SystemResetWarning,0824.2,4.99,000.00,020.2,019.2,000.0,028.7,021.3,11.3,0000.0,0008.09,0004.00,0003.65
2024-01-06 06:38:00,SystemResetWarning,0824.2,5.00,000.00,020.2,019.2,000.0,028.7,021.4,11.3,0000.0,0007.75,0003.97,0003.61
2024-01-06 06:39:00,SystemResetWarning,0824.1,5.00,000.00,020.2,019.2,000.0,028.7,021.4,11.3,0000.0,0007.69,0003.93,0003.57
2024-01-06 06:40:00,SystemResetWarning,0824.1,5.00,000.00,020.2,019.2,000.0,028.6,021.4,11.3,0000.0,0007.59,0003.89,0003.54
2024-01-06 06:41:00,SystemResetWarning,0824.2,5.00,000.00,020.2,019.2,000.0,028.6,021.4,11.4,0000.0,0007.44,0003.83,0003.50
2024-01-06 06:42:00,SystemResetWarning,0824.2,5.00,000.00,020.2,019.2,000.0,028.6,021.3,11.4,0000.0,0007.33,0003.78,0003.47
2024-01-06 06:43:00,SystemResetWarning,0824.2,5.00,000.00,020.2,019.2,000.0,028.6,021.4,11.4,0000.0,0007.36,0003.74,0003.44
2024-01-06 06:44:00,SystemResetWarning,0824.2,5.00,000.00,020.2,019.2,000.0,028.6,021.3,11.4,0000.0,0007.51,0003.73,0003.42
2024-01-06 06:45:00,SystemResetWarning,0824.3,5.00,000.00,020.2,019.2,000.0,028.6,021.3,11.4,0000.0,0006.92,0003.75,0003.42
2024-01-06 06:46:00,SystemResetWarning,0824.3,5.00,000.00,020.1,019.1,000.0,028.6,021.2,11.4,0000.0,0006.58,0003.73,0003.41
2024-01-06 06:47:00,SystemResetWarning,0824.3,5.01,000.00,020.1,019.1,000.0,028.6,021.2,11.4,0000.0,0006.32,0003.72,0003.41
2024-01-06 06:48:00,SystemResetWarning,0824.3,5.00,000.00,020.1,019.1,000.0,028.6,021.3,11.5,0000.0,0006.29,0003.70,0003.41
2024-01-06 06:49:00,SystemResetWarning,0824.3,5.00,000.00,020.1,019.1,000.0,028.5,021.2,11.5,0000.0,0006.36,0003.68,0003.40
2024-01-06 06:50:00,SystemResetWarning,0824.3,5.01,000.00,020.1,019.1,000.0,028.5,021.2,11.5,0000.0,0006.46,0003.71,0003.41
2024-01-06 06:51:00,SystemResetWarning,0824.3,5.00,000.00,020.1,019.1,000.0,028.5,021.2,11.5,0000.0,0006.50,0003.72,0003.42
2024-01-06 06:52:00,SystemResetWarning,0824.3,4.99,000.00,020.1,019.1,000.0,028.5,021.2,11.5,0000.0,0006.67,0003.75,0003.43
2024-01-06 06:53:00,SystemResetWarning,0824.3,5.00,000.00,020.1,019.1,000.0,028.5,021.3,11.5,0000.0,0006.66,0003.75,0003.43
2024-01-06 06:54:00,SystemResetWarning,0824.3,4.99,000.00,020.1,019.1,000.0,028.5,021.3,11.5,0000.0,0006.51,0003.73,0003.42
2024-01-06 06:55:00,SystemResetWarning,0824.3,5.00,000.00,020.1,019.1,000.0,028.5,021.3,11.5,0000.0,0006.16,0003.71,0003.41
2024-01-06 06:56:00,SystemResetWarning,0824.3,5.00,000.00,020.1,019.1,000.0,028.5,021.2,11.5,0000.0,0006.03,0003.68,0003.39
2024-01-06 06:57:00,SystemResetWarning,0824.3,5.01,000.00,020.1,019.1,000.0,028.5,021.2,11.5,0000.0,0005.91,0003.66,0003.37
2024-01-06 06:58:00,SystemResetWarning,0824.4,5.01,000.00,020.1,019.1,000.0,028.5,021.1,11.5,0000.0,0006.65,0003.68,0003.36
2024-01-06 06:59:00,SystemResetWarning,0824.4,5.01,000.00,020.1,019.1,000.0,028.4,021.1,11.5,0000.0,0006.74,0003.68,0003.35
